Location: Corcelles
(46.1547°N, 4.7234°E)
Time: 04:29:12
(UTC+00:00)

Cosmos 2173 Rocket - Pass Details

Date: 14 July 2020
Orbit: 944 x 1001 km, 83.0° (Epoch: 06 August)

Event Time Altitude Azimuth Distance (km) Brightness Sun altitude
Exits shadow 01:43:02 27° 218° (SW) 1,831 4.8 -17.3°
Maximum altitude 01:46:27 54° 283° (WNW) 1,198 4.3 -17.0°
Drops below altitude 10° 01:52:38 10° 0° (N) 2,751 7.3 -16.5°
Sets 01:55:14 0° 6° (N) 3,694 8.2 -16.3°
